Location: Bailleul
(50.3375°N, 2.8513°E)
Time: 10:12:03
(UTC+00:00)

H-2A R/B - Pass Details

Date: 16 June 2021
Orbit: 574 x 597 km, 98.2° (Epoch: 28 July)

Event Time Altitude Azimuth Distance (km) Brightness Sun altitude
Rises 21:58:59 0° 14° (NNE) 2,801 7.8 -12.3°
Reaches altitude 10° 22:01:09 10° 14° (NNE) 1,896 6.8 -12.5°
Maximum altitude 22:05:15 90° 60° (ENE) 582 3.4 -12.8°
Enters shadow 22:08:49 13° 196° (SSW) 1,669 5.3 -13.0°
